Terminal Aerodrome Forecast
Issued by NWS

Home | Current Version | Previous Version | Graphics & Text | Print | Product List | Glossary Off
Versions: 1 2 3 4 5 6 7 8 9 10 11 12 13 14 15 16 17 18 19 20 21 22 23 24 25 26 27 28 29 30 31 32 33 34 35 36 37 38

000
FTUS43 KDDC 100137 AAA
TAFHYS
TAF AMD
KHYS 100137Z 1002/1024 12006KT P6SM OVC070
     FM100600 26007KT P6SM SCT070 SCT250
     FM101200 26007KT P6SM SKC
     FM101800 31015G25KT P6SM SKC=

USA.gov is the U.S. government's official web portal to all federal, state and local government web resources and services.